Dilworth, MN

7:42 AM CST on January 18, 2017 (GMT -0600)
Moorhead Municipal

Weather History for KJKJ - January, 2013

Change the Weather History Date:

Wednesday, January 9, 2013

  Actual Average (KFAR) Record (KFAR)
Temperature  
Mean Temperature 27 °F -  
Max Temperature 33 °F 10 °F 51 °F (2012)
Min Temperature 21 °F -6 °F -38 °F (1887)
Degree Days  
Heating Degree Days 38    
Moisture  
Dew Point 21 °F    
Average Humidity 81    
Maximum Humidity 93    
Minimum Humidity 74    
Precipitation  
Precipitation 0.00 in - - ()
Sea Level Pressure  
Sea Level Pressure 30.09 in    
Wind  
Wind Speed 17 mph (WSW)    
Max Wind Speed 30 mph    
Max Gust Speed 38 mph    
Visibility 10 miles    
Events      
Averages and records for this station are not official NWS values.
T = Trace of Precipitation, MM = Missing Value Source: NWS Daily Summary

Daily Weather History Graph

Daily Weather History Graph

Search for Another Location

Airport or City:

Trip Planner

Search our weather history database for the weather conditions in past years. The results will help you decide how hot, cold, wet, or windy it might be!

Date:

Astronomy

Jan. 09, 2013 Rise Set
Actual Time 8:10 AM CST 4:57 PM CST
Civil Twilight 7:35 AM CST 5:32 PM CST
Nautical Twilight 6:57 AM CST 6:10 PM CST
Astronomical Twilight 6:21 AM CST 6:47 PM CST
Moon 5:51 AM CST (1/9) 3:00 PM CST (1/9)
Length of Visible Light 9h 56m
Length of Day
8h 47m
Waning Crescent, 6% of the Moon is Illuminated
Jan 9
Waning Crescent
Jan 11
New
Jan 18
First Quarter
Jan 26
Full
Feb 3
Last Quarter

Hourly Weather History & Observations

Time (CST) Temp. Windchill Dew Point Humidity Pressure Visibility Wind Dir Wind Speed Gust Speed Precip Events Conditions
12:15 AM 32.0 °F 20.1 °F 26.6 °F 80% 29.79 in 10.0 mi West 19.6 mph - N/A   Clear
12:35 AM 33.8 °F 20.8 °F 26.6 °F 75% 29.81 in 10.0 mi West 26.5 mph - N/A   Scattered Clouds
12:55 AM 33.8 °F 21.3 °F 26.6 °F 75% 29.82 in 10.0 mi WNW 24.2 mph 31.1 mph N/A   Mostly Cloudy
1:15 AM 32.0 °F 18.4 °F 26.6 °F 80% 29.83 in 10.0 mi WNW 26.5 mph 36.8 mph N/A   Scattered Clouds
1:35 AM 30.2 °F 17.4 °F 24.8 °F 80% 29.84 in 10.0 mi WNW 20.7 mph 31.1 mph N/A   Clear
2:15 AM 30.2 °F 19.3 °F 24.8 °F 80% 29.87 in 10.0 mi WNW 15.0 mph 24.2 mph N/A   Mostly Cloudy
2:35 AM 28.4 °F 14.1 °F 24.8 °F 86% 29.88 in 10.0 mi WNW 24.2 mph 31.1 mph N/A   Scattered Clouds
2:55 AM 28.4 °F 13.8 °F 24.8 °F 86% 29.89 in 10.0 mi WNW 25.3 mph - N/A   Clear
3:14 AM 28.4 °F 12.7 °F 23.0 °F 80% 29.91 in 10.0 mi WNW 29.9 mph 38.0 mph N/A   Clear
3:35 AM 28.4 °F 14.7 °F 23.0 °F 80% 29.93 in 10.0 mi WNW 21.9 mph 35.7 mph N/A   Clear
3:55 AM 26.6 °F 12.4 °F 23.0 °F 86% 29.94 in 10.0 mi WNW 21.9 mph 26.5 mph N/A   Clear
4:14 AM 26.6 °F 12.4 °F 21.2 °F 80% 29.96 in 10.0 mi WNW 21.9 mph 29.9 mph N/A   Clear
4:35 AM 26.6 °F 12.0 °F 21.2 °F 80% 29.97 in 10.0 mi WNW 23.0 mph 28.8 mph N/A   Clear
4:55 AM 26.6 °F 11.7 °F 21.2 °F 80% 29.98 in 10.0 mi WNW 24.2 mph 34.5 mph N/A   Clear
5:15 AM 24.8 °F 10.3 °F 21.2 °F 86% 30.00 in 10.0 mi WNW 20.7 mph 28.8 mph N/A   Clear
5:35 AM 24.8 °F 10.3 °F 19.4 °F 80% 30.02 in 10.0 mi WNW 20.7 mph 28.8 mph N/A   Clear
6:15 AM 24.8 °F 11.9 °F 19.4 °F 80% 30.05 in 10.0 mi WNW 16.1 mph - N/A   Clear
6:35 AM 24.8 °F 11.9 °F 19.4 °F 80% 30.06 in 10.0 mi WNW 16.1 mph - N/A   Clear
6:55 AM 24.8 °F 13.4 °F 19.4 °F 80% 30.08 in 10.0 mi West 12.7 mph - N/A   Clear
7:15 AM 23.0 °F 10.1 °F 19.4 °F 86% 30.09 in 10.0 mi WNW 15.0 mph - N/A   Clear
7:35 AM 21.2 °F 10.1 °F 19.4 °F 93% 30.10 in 10.0 mi West 10.4 mph - N/A   Clear
7:55 AM 21.2 °F 10.9 °F 19.4 °F 93% 30.12 in 10.0 mi West 9.2 mph - N/A   Clear
8:35 AM 21.2 °F 8.9 °F 17.6 °F 86% 30.14 in 10.0 mi WNW 12.7 mph - N/A   Clear
8:55 AM 21.2 °F 8.9 °F 17.6 °F 86% 30.16 in 10.0 mi WNW 12.7 mph 17.3 mph N/A   Clear
9:15 AM 21.2 °F 10.1 °F 17.6 °F 86% 30.16 in 10.0 mi NW 10.4 mph - N/A   Clear
9:35 AM 21.2 °F 8.9 °F 19.4 °F 93% 30.16 in 10.0 mi WNW 12.7 mph - N/A   Clear
9:55 AM 23.0 °F 10.6 °F 19.4 °F 86% 30.17 in 10.0 mi WNW 13.8 mph - N/A   Clear
10:15 AM 24.8 °F 13.4 °F 19.4 °F 80% 30.18 in 10.0 mi WNW 12.7 mph - N/A   Clear
10:35 AM 24.8 °F 12.4 °F 19.4 °F 80% 30.19 in 10.0 mi WNW 15.0 mph - N/A   Clear
10:54 AM 24.8 °F 13.4 °F 19.4 °F 80% 30.19 in 10.0 mi WNW 12.7 mph - N/A   Clear
11:15 AM 24.8 °F 13.4 °F 19.4 °F 80% 30.19 in 10.0 mi NNW 12.7 mph - N/A   Clear
11:54 AM 24.8 °F 16.1 °F 19.4 °F 80% 30.19 in 10.0 mi NW 8.1 mph - N/A   Clear
12:15 PM 24.8 °F 16.9 °F 19.4 °F 80% 30.19 in 10.0 mi NW 6.9 mph - N/A   Clear
12:35 PM 24.8 °F 19.1 °F 19.4 °F 80% 30.18 in 10.0 mi NW 4.6 mph - N/A   Clear
12:55 PM 26.6 °F - 19.4 °F 74% 30.19 in 10.0 mi Calm Calm - N/A   Clear
1:15 PM 26.6 °F 21.2 °F 19.4 °F 74% 30.20 in 10.0 mi West 4.6 mph - N/A   Clear
1:35 PM 26.6 °F - 19.4 °F 74% 30.21 in 10.0 mi Calm Calm - N/A   Clear
1:55 PM 26.6 °F 20.0 °F 21.2 °F 80% 30.21 in 10.0 mi South 5.8 mph - N/A   Scattered Clouds
2:15 PM 26.6 °F 19.1 °F 21.2 °F 80% 30.22 in 10.0 mi South 6.9 mph - N/A   Overcast
2:35 PM 26.6 °F 16.8 °F 21.2 °F 80% 30.24 in 10.0 mi SSW 10.4 mph - N/A   Overcast
2:55 PM 26.6 °F 17.5 °F 21.2 °F 80% 30.25 in 10.0 mi South 9.2 mph - N/A   Overcast
3:15 PM 26.6 °F 18.2 °F 21.2 °F 80% 30.24 in 10.0 mi South 8.1 mph - N/A   Overcast
3:34 PM 26.6 °F 17.5 °F 21.2 °F 80% 30.24 in 10.0 mi South 9.2 mph - N/A   Overcast
3:55 PM 26.6 °F 17.5 °F 21.2 °F 80% 30.24 in 10.0 mi South 9.2 mph - N/A   Overcast
4:15 PM 28.4 °F 18.5 °F 21.2 °F 74% 30.23 in 10.0 mi South 11.5 mph - N/A   Overcast
4:34 PM 28.4 °F 18.5 °F 21.2 °F 74% 30.22 in 10.0 mi South 11.5 mph - N/A   Mostly Cloudy
4:55 PM 26.6 °F 16.2 °F 23.0 °F 86% 30.21 in 10.0 mi South 11.5 mph - N/A   Scattered Clouds
5:14 PM 26.6 °F 16.2 °F 23.0 °F 86% 30.20 in 10.0 mi SSE 11.5 mph - N/A   Clear
5:35 PM 24.8 °F 13.4 °F 21.2 °F 86% 30.17 in 10.0 mi SSE 12.7 mph - N/A   Clear
5:55 PM 24.8 °F 14.0 °F 21.2 °F 86% 30.17 in 10.0 mi SSE 11.5 mph - N/A   Clear
6:15 PM 24.8 °F 12.4 °F 21.2 °F 86% 30.16 in 10.0 mi SSE 15.0 mph - N/A   Clear
6:35 PM 24.8 °F 12.4 °F 21.2 °F 86% 30.15 in 10.0 mi SSE 15.0 mph - N/A   Clear
6:55 PM 24.8 °F 11.9 °F 21.2 °F 86% 30.14 in 10.0 mi SSE 16.1 mph - N/A   Clear
7:14 PM 24.8 °F 11.5 °F 21.2 °F 86% 30.14 in 10.0 mi SSE 17.3 mph - N/A   Clear
7:35 PM 26.6 °F 13.8 °F 21.2 °F 80% 30.12 in 10.0 mi SSE 17.3 mph 24.2 mph N/A   Clear
7:55 PM 26.6 °F 13.8 °F 21.2 °F 80% 30.10 in 10.0 mi South 17.3 mph - N/A   Clear
8:15 PM 28.4 °F 17.0 °F 21.2 °F 74% 30.10 in 10.0 mi South 15.0 mph 20.7 mph N/A   Clear
8:35 PM 26.6 °F 13.8 °F 21.2 °F 80% 30.09 in 10.0 mi South 17.3 mph 20.7 mph N/A   Clear
8:54 PM 28.4 °F 16.2 °F 21.2 °F 74% 30.08 in 10.0 mi South 17.3 mph - N/A   Clear
9:15 PM 28.4 °F 16.2 °F 21.2 °F 74% 30.07 in 10.0 mi South 17.3 mph 21.9 mph N/A   Clear
9:34 PM 28.4 °F 16.2 °F 21.2 °F 74% 30.07 in 10.0 mi South 17.3 mph - N/A   Clear
9:55 PM 28.4 °F 15.4 °F 21.2 °F 74% 30.07 in 10.0 mi South 19.6 mph - N/A   Clear
10:15 PM 28.4 °F 16.6 °F 23.0 °F 80% 30.06 in 10.0 mi South 16.1 mph 24.2 mph N/A   Clear
10:34 PM 28.4 °F 16.2 °F 23.0 °F 80% 30.05 in 10.0 mi South 17.3 mph - N/A   Clear
10:55 PM 28.4 °F 17.0 °F 24.8 °F 86% 30.04 in 10.0 mi SSE 15.0 mph - N/A   Clear
11:15 PM 28.4 °F 18.0 °F 24.8 °F 86% 30.05 in 10.0 mi SSE 12.7 mph - N/A   Clear
11:35 PM 28.4 °F 17.5 °F 24.8 °F 86% 30.04 in 10.0 mi South 13.8 mph - N/A   Clear
11:55 PM 30.2 °F 20.2 °F 26.6 °F 86% 30.04 in 10.0 mi South 12.7 mph - N/A   Clear